Time,TemperatureF,DewpointF,PressureIn,WindDirection,WindDirectionDegrees,WindSpeedMPH,WindSpeedGustMPH,Humidity,HourlyPrecipIn,Conditions,Clouds,dailyrainin,SoftwareType,DateUTC
2013-11-04 00:01:00,35.4,29.8,30.38,SE,135,4.2,9.1,80,0.00,,,0.00,WUHU21636XXSP,2013-11-04 05:01:00,
2013-11-04 00:06:00,35.4,29.8,30.39,SE,135,4.0,6.7,80,0.00,,,0.00,WUHU21636XXSP,2013-11-04 05:06:00,
2013-11-04 00:11:00,35.4,30.0,30.39,SE,135,4.0,6.4,81,0.00,,,0.00,WUHU21636XXSP,2013-11-04 05:11:00,
2013-11-04 00:16:00,35.4,30.2,30.39,SSE,157,2.2,12.2,81,0.00,,,0.00,WUHU21636XXSP,2013-11-04 05:16:00,
2013-11-04 00:21:00,35.4,30.0,30.39,SSE,157,4.4,12.2,81,0.00,,,0.00,WUHU21636XXSP,2013-11-04 05:21:00,
2013-11-04 00:26:00,35.4,30.0,30.39,South,180,5.8,14.3,81,0.00,,,0.00,WUHU21636XXSP,2013-11-04 05:26:00,
2013-11-04 00:31:00,35.8,31.8,30.39,SE,135,5.8,14.3,81,0.00,,,0.00,WUHU21636XXSP,2013-11-04 05:31:00,
2013-11-04 00:36:00,35.8,30.4,30.39,SSE,157,3.8,13.8,81,0.00,,,0.00,WUHU21636XXSP,2013-11-04 05:36:00,
2013-11-04 00:41:00,35.6,30.2,30.39,SSE,157,1.1,11.6,81,0.00,,,0.00,WUHU21636XXSP,2013-11-04 05:41:00,
2013-11-04 00:46:00,35.4,30.0,30.40,SE,135,4.4,6.7,81,0.00,,,0.00,WUHU21636XXSP,2013-11-04 05:46:00,
2013-11-04 00:51:00,35.4,30.4,30.40,South,180,6.9,12.5,82,0.00,,,0.00,WUHU21636XXSP,2013-11-04 05:51:00,
2013-11-04 00:56:00,35.6,30.2,30.40,SE,135,7.1,12.5,81,0.00,,,0.00,WUHU21636XXSP,2013-11-04 05:56:00,
2013-11-04 01:01:00,35.8,30.4,30.40,SSE,157,10.9,15.8,81,0.00,,,0.00,WUHU21636XXSP,2013-11-04 06:01:00,
2013-11-04 01:06:00,36.0,30.6,30.39,SE,135,6.2,16.5,81,0.00,,,0.00,WUHU21636XXSP,2013-11-04 06:06:00,
2013-11-04 01:11:00,35.8,30.4,30.39,SSE,157,6.7,16.5,81,0.00,,,0.00,WUHU21636XXSP,2013-11-04 06:11:00,
2013-11-04 01:16:00,36.0,30.6,30.39,SE,135,5.1,18.3,81,0.00,,,0.00,WUHU21636XXSP,2013-11-04 06:16:00,
2013-11-04 01:21:00,36.0,30.4,30.39,SSE,157,8.9,18.3,80,0.00,,,0.00,WUHU21636XXSP,2013-11-04 06:21:00,
2013-11-04 01:26:00,36.0,30.4,30.39,ESE,112,5.3,11.4,80,0.00,,,0.00,WUHU21636XXSP,2013-11-04 06:26:00,
2013-11-04 01:31:00,36.0,30.4,30.39,SE,135,4.4,11.1,80,0.00,,,0.00,WUHU21636XXSP,2013-11-04 06:31:00,
2013-11-04 01:36:00,36.1,30.6,30.39,SSE,157,4.2,11.1,80,0.00,,,0.00,WUHU21636XXSP,2013-11-04 06:36:00,
2013-11-04 01:41:00,36.1,30.2,30.39,SSE,157,6.0,15.4,79,0.00,,,0.00,WUHU21636XXSP,2013-11-04 06:41:00,
2013-11-04 01:46:00,36.1,30.2,30.39,SSE,157,9.3,15.4,79,0.00,,,0.00,WUHU21636XXSP,2013-11-04 06:46:00,
2013-11-04 01:51:00,36.3,30.0,30.39,SE,135,3.1,17.2,78,0.00,,,0.00,WUHU21636XXSP,2013-11-04 06:51:00,
2013-11-04 01:56:00,36.3,30.0,30.39,SSE,157,4.9,17.2,78,0.00,,,0.00,WUHU21636XXSP,2013-11-04 06:56:00,
2013-11-04 02:01:00,36.3,30.0,30.39,SE,135,6.9,14.3,78,0.00,,,0.00,WUHU21636XXSP,2013-11-04 07:01:00,
2013-11-04 02:06:00,36.3,30.0,30.38,ESE,112,6.9,11.1,78,0.00,,,0.00,WUHU21636XXSP,2013-11-04 07:06:00,
2013-11-04 02:11:00,36.3,30.0,30.39,SSE,157,4.9,16.3,78,0.00,,,0.00,WUHU21636XXSP,2013-11-04 07:11:00,
2013-11-04 02:16:00,36.1,30.0,30.39,SSE,157,6.0,16.3,78,0.00,,,0.00,WUHU21636XXSP,2013-11-04 07:16:00,
2013-11-04 02:21:00,36.1,29.8,30.40,South,180,6.2,14.9,78,0.00,,,0.00,WUHU21636XXSP,2013-11-04 07:21:00,
2013-11-04 02:26:00,37.9,29.8,30.40,South,180,6.7,13.4,78,0.00,,,0.00,WUHU21636XXSP,2013-11-04 07:26:00,
2013-11-04 02:31:00,36.1,29.8,30.40,SSE,157,7.8,13.4,78,0.00,,,0.00,WUHU21636XXSP,2013-11-04 07:31:00,
2013-11-04 02:36:00,36.0,29.7,30.40,SSE,157,6.9,13.1,78,0.00,,,0.00,WUHU21636XXSP,2013-11-04 07:36:00,
2013-11-04 02:41:00,36.0,29.7,30.41,SSE,157,7.6,13.4,78,0.00,,,0.00,WUHU21636XXSP,2013-11-04 07:41:00,
2013-11-04 02:46:00,36.0,29.7,30.41,South,180,7.6,15.4,78,0.00,,,0.00,WUHU21636XXSP,2013-11-04 07:46:00,
2013-11-04 02:51:00,35.8,29.5,30.40,South,180,3.3,15.4,78,0.00,,,0.00,WUHU21636XXSP,2013-11-04 07:51:00,
2013-11-04 02:56:00,35.8,29.5,30.40,SSE,157,4.0,12.7,78,0.00,,,0.00,WUHU21636XXSP,2013-11-04 07:56:00,
2013-11-04 03:01:00,35.8,29.8,30.40,SSE,157,2.4,17.4,79,0.00,,,0.00,WUHU21636XXSP,2013-11-04 08:01:00,
2013-11-04 03:06:00,35.6,29.5,30.40,SE,135,4.9,17.4,79,0.00,,,0.00,WUHU21636XXSP,2013-11-04 08:06:00,
2013-11-04 03:11:00,35.4,29.5,30.41,SE,135,6.9,12.7,79,0.00,,,0.00,WUHU21636XXSP,2013-11-04 08:11:00,
2013-11-04 03:16:00,35.4,29.5,30.41,South,180,4.2,12.7,79,0.00,,,0.00,WUHU21636XXSP,2013-11-04 08:16:00,
2013-11-04 03:21:00,35.2,29.4,30.41,SSE,157,2.9,8.0,79,0.00,,,0.00,WUHU21636XXSP,2013-11-04 08:21:00,
2013-11-04 03:26:00,35.1,29.5,30.41,SSE,157,2.9,8.0,80,0.00,,,0.00,WUHU21636XXSP,2013-11-04 08:26:00,
2013-11-04 03:31:00,35.1,29.5,30.41,SE,135,6.0,9.8,80,0.00,,,0.00,WUHU21636XXSP,2013-11-04 08:31:00,
2013-11-04 03:36:00,34.9,29.3,30.41,SE,135,4.4,10.9,80,0.00,,,0.00,WUHU21636XXSP,2013-11-04 08:36:00,
2013-11-04 03:41:00,34.7,29.1,30.41,SE,135,6.9,15.2,80,0.00,,,0.00,WUHU21636XXSP,2013-11-04 08:41:00,
2013-11-04 03:46:00,34.7,29.1,30.41,SE,135,8.5,15.2,80,0.00,,,0.00,WUHU21636XXSP,2013-11-04 08:46:00,
2013-11-04 03:51:00,34.7,29.1,30.41,SE,135,5.3,13.1,80,0.00,,,0.00,WUHU21636XXSP,2013-11-04 08:51:00,
2013-11-04 03:56:00,34.5,28.9,30.41,ESE,112,9.1,14.7,80,0.00,,,0.00,WUHU21636XXSP,2013-11-04 08:56:00,
2013-11-04 04:01:00,34.5,29.1,30.40,SE,135,5.5,14.7,80,0.00,,,0.00,WUHU21636XXSP,2013-11-04 09:01:00,
2013-11-04 04:06:00,34.7,29.1,30.40,SE,135,4.2,10.7,80,0.00,,,0.00,WUHU21636XXSP,2013-11-04 09:06:00,
2013-11-04 04:11:00,34.7,29.1,30.40,SE,135,5.1,15.6,80,0.00,,,0.00,WUHU21636XXSP,2013-11-04 09:11:00,
2013-11-04 04:16:00,34.7,29.1,30.40,SSE,157,4.9,15.6,80,0.00,,,0.00,WUHU21636XXSP,2013-11-04 09:16:00,
2013-11-04 04:21:00,34.7,29.1,30.40,SE,135,4.0,10.7,80,0.00,,,0.00,WUHU21636XXSP,2013-11-04 09:21:00,
2013-11-04 04:26:00,34.7,29.2,30.40,SSE,157,4.6,10.7,80,0.00,,,0.00,WUHU21636XXSP,2013-11-04 09:26:00,
2013-11-04 04:31:00,34.9,29.3,30.40,SSE,157,3.3,10.5,80,0.00,,,0.00,WUHU21636XXSP,2013-11-04 09:31:00,
2013-11-04 04:36:00,34.7,29.1,30.40,SSE,157,4.6,10.5,80,0.00,,,0.00,WUHU21636XXSP,2013-11-04 09:36:00,
2013-11-04 04:41:00,34.9,29.3,30.40,SSE,157,3.1,9.3,80,0.00,,,0.00,WUHU21636XXSP,2013-11-04 09:41:00,
2013-11-04 04:46:00,34.9,28.9,30.40,SE,135,4.0,12.0,79,0.00,,,0.00,WUHU21636XXSP,2013-11-04 09:46:00,
2013-11-04 04:51:00,35.1,29.1,30.40,SE,135,4.6,14.7,79,0.00,,,0.00,WUHU21636XXSP,2013-11-04 09:51:00,
2013-11-04 04:56:00,34.9,28.9,30.39,SE,135,5.1,14.7,79,0.00,,,0.00,WUHU21636XXSP,2013-11-04 09:56:00,
2013-11-04 05:01:00,34.9,28.9,30.39,SSE,157,3.3,10.1,79,0.00,,,0.00,WUHU21636XXSP,2013-11-04 10:01:00,
2013-11-04 05:06:00,35.1,28.9,30.38,SSE,157,5.5,12.3,79,0.00,,,0.00,WUHU21636XXSP,2013-11-04 10:06:00,
2013-11-04 05:11:00,35.1,29.1,30.39,SSE,157,3.3,12.3,79,0.00,,,0.00,WUHU21636XXSP,2013-11-04 10:11:00,
2013-11-04 05:16:00,35.1,29.1,30.38,SSE,157,1.7,10.5,79,0.00,,,0.00,WUHU21636XXSP,2013-11-04 10:16:00,
2013-11-04 05:21:00,35.1,29.1,30.38,SE,135,6.2,11.8,79,0.00,,,0.00,WUHU21636XXSP,2013-11-04 10:21:00,
2013-11-04 05:26:00,35.2,28.9,30.38,SE,135,5.5,15.4,78,0.00,,,0.00,WUHU21636XXSP,2013-11-04 10:26:00,
2013-11-04 05:31:00,35.2,28.9,30.39,SSE,157,7.1,15.4,78,0.00,,,0.00,WUHU21636XXSP,2013-11-04 10:31:00,
2013-11-04 05:36:00,35.4,28.8,30.39,SSE,157,3.8,12.5,77,0.00,,,0.00,WUHU21636XXSP,2013-11-04 10:36:00,
2013-11-04 05:41:00,35.4,28.8,30.39,SSE,157,4.4,13.1,77,0.00,,,0.00,WUHU21636XXSP,2013-11-04 10:41:00,
2013-11-04 05:46:00,35.2,28.6,30.39,SSE,157,3.8,13.1,77,0.00,,,0.00,WUHU21636XXSP,2013-11-04 10:46:00,
2013-11-04 05:51:00,35.2,28.9,30.39,SE,135,6.9,10.0,78,0.00,,,0.00,WUHU21636XXSP,2013-11-04 10:51:00,
2013-11-04 05:56:00,35.1,28.8,30.40,SE,135,4.2,11.6,78,0.00,,,0.00,WUHU21636XXSP,2013-11-04 10:56:00,
2013-11-04 06:01:00,34.9,28.6,30.40,SSE,157,4.6,12.7,78,0.00,,,0.00,WUHU21636XXSP,2013-11-04 11:01:00,
2013-11-04 06:06:00,34.9,28.6,30.40,SSE,157,5.8,12.7,78,0.00,,,0.00,WUHU21636XXSP,2013-11-04 11:06:00,
2013-11-04 06:11:00,35.1,28.4,30.40,SSE,157,15.0,28.0,77,0.00,,,0.00,WUHU21636XXSP,2013-11-04 11:11:00,
2013-11-04 06:15:00,34.9,28.6,30.39,SE,135,4.0,28.0,78,0.00,,,0.00,WUHU21636XXSP,2013-11-04 11:15:00,
2013-11-04 06:20:00,34.9,28.6,30.39,SE,135,6.7,28.0,78,0.00,,,0.00,WUHU21636XXSP,2013-11-04 11:20:00,
2013-11-04 06:22:00,34.9,28.6,30.39,SSW,202,7.8,14.5,78,0.00,,,0.00,WUHU21636XXSP,2013-11-04 11:22:00,
2013-11-04 06:27:00,35.2,28.6,30.39,SSE,157,9.6,14.5,77,0.00,,,0.00,WUHU21636XXSP,2013-11-04 11:27:00,
2013-11-04 06:32:00,35.2,28.6,30.39,SSE,157,7.1,16.3,77,0.00,,,0.00,WUHU21636XXSP,2013-11-04 11:32:00,
2013-11-04 06:37:00,35.2,28.6,30.39,SSE,157,7.8,17.4,77,0.00,,,0.00,WUHU21636XXSP,2013-11-04 11:37:00,
2013-11-04 06:42:00,35.2,28.6,30.39,South,180,7.3,17.4,77,0.00,,,0.00,WUHU21636XXSP,2013-11-04 11:42:00,
2013-11-04 06:47:00,35.2,28.6,30.39,SSE,157,6.2,15.6,77,0.00,,,0.00,WUHU21636XXSP,2013-11-04 11:47:00,
2013-11-04 06:52:00,35.2,28.6,30.38,SE,135,8.5,15.6,77,0.00,,,0.00,WUHU21636XXSP,2013-11-04 11:52:00,
2013-11-04 06:57:00,35.2,28.6,30.38,SE,135,12.5,17.8,77,0.00,,,0.00,WUHU21636XXSP,2013-11-04 11:57:00,
2013-11-04 07:02:00,35.4,28.8,30.38,SSE,157,7.8,17.8,77,0.00,,,0.00,WUHU21636XXSP,2013-11-04 12:02:00,
2013-11-04 07:07:00,35.4,28.4,30.38,SSE,157,12.7,21.2,76,0.00,,,0.00,WUHU21636XXSP,2013-11-04 12:07:00,
2013-11-04 07:12:00,35.4,28.4,30.38,SE,135,4.0,21.2,76,0.00,,,0.00,WUHU21636XXSP,2013-11-04 12:12:00,
2013-11-04 07:17:00,35.2,28.6,30.38,SSE,157,6.4,15.4,77,0.00,,,0.00,WUHU21636XXSP,2013-11-04 12:17:00,
2013-11-04 07:22:00,35.2,28.6,30.38,SSE,157,6.0,15.4,77,0.00,,,0.00,WUHU21636XXSP,2013-11-04 12:22:00,
2013-11-04 07:27:00,35.4,28.8,30.38,SSE,157,7.3,16.5,77,0.00,,,0.00,WUHU21636XXSP,2013-11-04 12:27:00,
2013-11-04 07:32:00,35.4,28.9,30.38,SSE,157,4.6,17.6,77,0.00,,,0.00,WUHU21636XXSP,2013-11-04 12:32:00,
2013-11-04 07:37:00,35.6,28.9,30.38,SE,135,7.1,17.6,77,0.00,,,0.00,WUHU21636XXSP,2013-11-04 12:37:00,
2013-11-04 07:42:00,35.8,28.9,30.38,SSE,157,6.2,16.5,77,0.00,,,0.00,WUHU21636XXSP,2013-11-04 12:42:00,
2013-11-04 07:47:00,36.0,29.3,30.38,SE,135,9.8,16.5,77,0.00,,,0.00,WUHU21636XXSP,2013-11-04 12:47:00,
2013-11-04 07:52:00,36.1,29.5,30.38,SE,135,8.5,16.5,77,0.00,,,0.00,WUHU21636XXSP,2013-11-04 12:52:00,
2013-11-04 07:57:00,36.3,29.7,30.38,SSE,157,10.0,16.5,77,0.00,,,0.00,WUHU21636XXSP,2013-11-04 12:57:00,
2013-11-04 08:02:00,36.5,29.8,30.38,SSE,157,8.7,20.3,77,0.00,,,0.00,WUHU21636XXSP,2013-11-04 13:02:00,
2013-11-04 08:07:00,36.7,29.7,30.38,SSE,157,8.9,20.3,76,0.00,,,0.00,WUHU21636XXSP,2013-11-04 13:07:00,
2013-11-04 08:12:00,37.0,30.0,30.38,SSE,157,6.4,20.5,76,0.00,,,0.00,WUHU21636XXSP,2013-11-04 13:12:00,
2013-11-04 08:17:00,36.9,30.2,30.38,South,180,6.2,20.5,77,0.00,,,0.00,WUHU21636XXSP,2013-11-04 13:17:00,
2013-11-04 08:22:00,37.0,30.4,30.38,SSE,157,6.7,19.2,77,0.00,,,0.00,WUHU21636XXSP,2013-11-04 13:22:00,
2013-11-04 08:27:00,37.0,30.4,30.38,SSE,157,8.0,19.2,77,0.00,,,0.00,WUHU21636XXSP,2013-11-04 13:27:00,
2013-11-04 08:32:00,37.0,30.4,30.38,SSE,157,5.8,18.7,77,0.00,,,0.00,WUHU21636XXSP,2013-11-04 13:32:00,
2013-11-04 08:37:00,37.2,30.6,30.38,SE,135,11.1,16.3,77,0.00,,,0.00,WUHU21636XXSP,2013-11-04 13:37:00,
2013-11-04 08:42:00,37.4,30.7,30.38,SSE,157,10.9,17.6,77,0.00,,,0.00,WUHU21636XXSP,2013-11-04 13:42:00,
2013-11-04 08:47:00,37.6,30.9,30.37,SE,135,10.5,20.1,77,0.00,,,0.00,WUHU21636XXSP,2013-11-04 13:47:00,
2013-11-04 08:52:00,37.6,30.9,30.37,SSE,157,6.7,20.1,77,0.00,,,0.00,WUHU21636XXSP,2013-11-04 13:52:00,
2013-11-04 08:57:00,37.6,30.6,30.37,SSE,157,7.6,18.7,76,0.00,,,0.00,WUHU21636XXSP,2013-11-04 13:57:00,
2013-11-04 09:02:00,37.8,30.7,30.37,SSE,157,10.2,16.5,76,0.00,,,0.00,WUHU21636XXSP,2013-11-04 14:02:00,
2013-11-04 09:07:00,37.9,31.1,30.37,SE,135,7.1,16.5,76,0.00,,,0.00,WUHU21636XXSP,2013-11-04 14:07:00,
2013-11-04 09:12:00,38.1,30.7,30.36,SSE,157,10.7,17.4,75,0.00,,,0.00,WUHU21636XXSP,2013-11-04 14:12:00,
2013-11-04 09:17:00,38.5,31.1,30.36,SSE,157,5.5,17.8,75,0.00,,,0.00,WUHU21636XXSP,2013-11-04 14:17:00,
2013-11-04 09:22:00,38.8,31.5,30.36,SE,135,5.3,17.8,75,0.00,,,0.00,WUHU21636XXSP,2013-11-04 14:22:00,
2013-11-04 09:27:00,38.8,31.1,30.36,SSE,157,11.6,17.0,74,0.00,,,0.00,WUHU21636XXSP,2013-11-04 14:27:00,
2013-11-04 09:32:00,39.2,31.1,30.36,South,180,10.2,16.1,73,0.00,,,0.00,WUHU21636XXSP,2013-11-04 14:32:00,
2013-11-04 09:37:00,39.9,31.5,30.36,SE,135,10.2,18.1,73,0.00,,,0.00,WUHU21636XXSP,2013-11-04 14:37:00,
2013-11-04 09:42:00,40.3,31.5,30.36,SSE,157,9.6,18.1,71,0.00,,,0.00,WUHU21636XXSP,2013-11-04 14:42:00,
2013-11-04 09:47:00,40.3,31.3,30.35,SSW,202,12.9,20.1,70,0.00,,,0.00,WUHU21636XXSP,2013-11-04 14:47:00,
2013-11-04 09:52:00,40.3,31.5,30.35,SE,135,9.8,21.9,71,0.00,,,0.00,WUHU21636XXSP,2013-11-04 14:52:00,
2013-11-04 09:57:00,40.6,31.8,30.34,SE,135,4.9,21.9,71,0.00,,,0.00,WUHU21636XXSP,2013-11-04 14:57:00,
2013-11-04 10:02:00,40.6,31.6,30.35,SE,135,10.0,20.8,70,0.00,,,0.00,WUHU21636XXSP,2013-11-04 15:02:00,
2013-11-04 10:07:00,40.6,31.6,30.36,SE,135,9.1,69.0,70,0.00,,,0.00,WUHU21636XXSP,2013-11-04 15:07:00,
2013-11-04 10:12:00,41.2,31.6,30.36,SE,135,12.5,69.0,69,0.00,,,0.00,WUHU21636XXSP,2013-11-04 15:12:00,
2013-11-04 10:17:00,41.4,31.8,30.35,South,180,9.1,21.4,69,0.00,,,0.00,WUHU21636XXSP,2013-11-04 15:17:00,
2013-11-04 10:22:00,41.7,32.2,30.35,SE,135,5.1,21.4,69,0.00,,,0.00,WUHU21636XXSP,2013-11-04 15:22:00,
2013-11-04 10:27:00,42.4,32.9,30.34,South,180,5.3,16.3,69,0.00,,,0.00,WUHU21636XXSP,2013-11-04 15:27:00,
2013-11-04 10:32:00,42.4,31.8,30.34,SSE,157,11.6,17.2,66,0.00,,,0.00,WUHU21636XXSP,2013-11-04 15:32:00,
2013-11-04 10:37:00,42.1,31.8,30.34,SE,135,10.7,18.5,67,0.00,,,0.00,WUHU21636XXSP,2013-11-04 15:37:00,
2013-11-04 10:42:00,41.9,31.6,30.34,SE,135,8.7,18.5,67,0.00,,,0.00,WUHU21636XXSP,2013-11-04 15:42:00,
2013-11-04 10:47:00,41.9,32.4,30.34,ESE,112,9.6,17.2,67,0.00,,,0.00,WUHU21636XXSP,2013-11-04 15:47:00,
2013-11-04 10:52:00,41.7,31.5,30.34,SSE,157,6.4,14.0,67,0.00,,,0.00,WUHU21636XXSP,2013-11-04 15:52:00,
2013-11-04 10:57:00,41.7,31.5,30.34,South,180,7.6,14.9,67,0.00,,,0.00,WUHU21636XXSP,2013-11-04 15:57:00,
2013-11-04 11:02:00,41.7,31.5,30.34,SSE,157,6.4,14.9,67,0.00,,,0.00,WUHU21636XXSP,2013-11-04 16:02:00,
2013-11-04 11:07:00,41.9,31.3,30.33,SE,135,4.4,15.4,66,0.00,,,0.00,WUHU21636XXSP,2013-11-04 16:07:00,
2013-11-04 11:12:00,42.3,31.5,30.33,SSE,157,6.9,16.1,65,0.00,,,0.00,WUHU21636XXSP,2013-11-04 16:12:00,
2013-11-04 11:17:00,42.6,31.6,30.33,SE,135,6.7,16.1,65,0.00,,,0.00,WUHU21636XXSP,2013-11-04 16:17:00,
2013-11-04 11:22:00,42.8,31.9,30.33,SE,135,5.3,19.0,65,0.00,,,0.00,WUHU21636XXSP,2013-11-04 16:22:00,
2013-11-04 11:27:00,43.3,31.8,30.33,ESE,112,5.3,19.0,64,0.00,,,0.00,WUHU21636XXSP,2013-11-04 16:27:00,
2013-11-04 11:32:00,36.3,31.6,30.33,SE,135,7.3,17.0,63,0.00,,,0.00,WUHU21636XXSP,2013-11-04 16:32:00,
2013-11-04 11:37:00,43.5,31.6,30.33,SSE,157,8.0,17.0,63,0.00,,,0.00,WUHU21636XXSP,2013-11-04 16:37:00,
2013-11-04 11:42:00,43.5,31.6,30.32,SE,135,6.7,15.4,63,0.00,,,0.00,WUHU21636XXSP,2013-11-04 16:42:00,
2013-11-04 11:47:00,43.7,30.9,30.33,SSE,157,6.2,15.4,61,0.00,,,0.00,WUHU21636XXSP,2013-11-04 16:47:00,
2013-11-04 11:52:00,43.7,31.5,30.33,SE,135,6.0,16.7,63,0.00,,,0.00,WUHU21636XXSP,2013-11-04 16:52:00,
2013-11-04 11:57:00,43.9,31.3,30.33,South,180,7.3,16.7,61,0.00,,,0.00,WUHU21636XXSP,2013-11-04 16:57:00,
2013-11-04 12:02:00,43.9,31.3,30.33,SSE,157,9.3,16.7,61,0.00,,,0.00,WUHU21636XXSP,2013-11-04 17:02:00,
2013-11-04 12:07:00,44.4,31.5,30.33,ESE,112,10.0,16.7,60,0.00,,,0.00,WUHU21636XXSP,2013-11-04 17:07:00,
2013-11-04 12:12:00,44.4,31.6,30.32,SE,135,8.9,16.3,60,0.00,,,0.00,WUHU21636XXSP,2013-11-04 17:12:00,
2013-11-04 12:17:00,45.0,31.8,30.31,South,180,5.5,16.3,59,0.00,,,0.00,WUHU21636XXSP,2013-11-04 17:17:00,
2013-11-04 12:22:00,45.3,31.9,30.31,SSE,157,6.9,15.2,59,0.00,,,0.00,WUHU21636XXSP,2013-11-04 17:22:00,
2013-11-04 12:27:00,46.0,32.0,30.30,SE,135,5.8,17.0,58,0.00,,,0.00,WUHU21636XXSP,2013-11-04 17:27:00,
2013-11-04 12:32:00,46.2,31.6,30.30,ESE,112,5.8,17.0,57,0.00,,,0.00,WUHU21636XXSP,2013-11-04 17:32:00,
2013-11-04 12:37:00,46.9,31.5,30.29,SE,135,9.8,17.0,55,0.00,,,0.00,WUHU21636XXSP,2013-11-04 17:37:00,
2013-11-04 12:42:00,46.9,30.9,30.30,South,180,9.8,17.0,55,0.00,,,0.00,WUHU21636XXSP,2013-11-04 17:42:00,
2013-11-04 12:47:00,47.1,30.2,30.30,SSE,157,11.1,16.5,52,0.00,,,0.00,WUHU21636XXSP,2013-11-04 17:47:00,
2013-11-04 12:52:00,48.4,31.5,30.29,South,180,11.6,27.0,52,0.00,,,0.00,WUHU21636XXSP,2013-11-04 17:52:00,
2013-11-04 12:57:00,50.0,32.2,30.29,SSE,157,8.0,27.0,50,0.00,,,0.00,WUHU21636XXSP,2013-11-04 17:57:00,
2013-11-04 13:02:00,50.5,30.9,30.28,SSW,202,12.9,22.3,47,0.00,,,0.00,WUHU21636XXSP,2013-11-04 18:02:00,
2013-11-04 13:07:00,50.0,29.9,30.28,SE,135,12.9,21.9,46,0.00,,,0.00,WUHU21636XXSP,2013-11-04 18:07:00,
2013-11-04 13:12:00,49.6,30.0,30.27,SSE,157,10.7,28.1,47,0.00,,,0.00,WUHU21636XXSP,2013-11-04 18:12:00,
2013-11-04 13:17:00,49.8,29.7,30.27,SSE,157,12.9,28.1,46,0.00,,,0.00,WUHU21636XXSP,2013-11-04 18:17:00,
2013-11-04 13:22:00,50.2,30.0,30.26,South,180,9.6,22.5,46,0.00,,,0.00,WUHU21636XXSP,2013-11-04 18:22:00,
2013-11-04 13:27:00,50.4,30.4,30.26,South,180,10.0,22.5,46,0.00,,,0.00,WUHU21636XXSP,2013-11-04 18:27:00,
2013-11-04 13:32:00,50.7,30.0,30.25,SSE,157,8.7,25.9,45,0.00,,,0.00,WUHU21636XXSP,2013-11-04 18:32:00,
2013-11-04 13:37:00,50.5,29.3,30.26,SSE,157,12.9,36.9,44,0.00,,,0.00,WUHU21636XXSP,2013-11-04 18:37:00,
2013-11-04 13:42:00,50.7,28.8,30.25,SSW,202,9.3,36.9,43,0.00,,,0.00,WUHU21636XXSP,2013-11-04 18:42:00,
2013-11-04 13:47:00,49.6,28.4,30.25,SE,135,8.9,20.3,44,0.00,,,0.00,WUHU21636XXSP,2013-11-04 18:47:00,
2013-11-04 13:52:00,49.3,27.5,30.25,SE,135,9.6,22.5,43,0.00,,,0.00,WUHU21636XXSP,2013-11-04 18:52:00,
2013-11-04 13:57:00,49.3,27.5,30.25,SSE,157,13.6,22.5,44,0.00,,,0.00,WUHU21636XXSP,2013-11-04 18:57:00,
2013-11-04 14:02:00,49.3,28.0,30.25,SSE,157,9.3,19.9,44,0.00,,,0.00,WUHU21636XXSP,2013-11-04 19:02:00,
2013-11-04 14:07:00,48.9,27.7,30.25,East,90,9.8,19.6,44,0.00,,,0.00,WUHU21636XXSP,2013-11-04 19:07:00,
2013-11-04 14:12:00,48.6,26.8,30.25,SSW,202,9.6,19.6,44,0.00,,,0.00,WUHU21636XXSP,2013-11-04 19:12:00,
2013-11-04 14:17:00,48.4,26.6,30.25,ESE,112,10.7,26.3,43,0.00,,,0.00,WUHU21636XXSP,2013-11-04 19:17:00,
2013-11-04 14:22:00,48.4,26.6,30.25,South,180,9.3,26.3,43,0.00,,,0.00,WUHU21636XXSP,2013-11-04 19:22:00,
2013-11-04 14:27:00,48.4,26.6,30.25,SSW,202,11.8,21.4,43,0.00,,,0.00,WUHU21636XXSP,2013-11-04 19:27:00,
2013-11-04 14:32:00,48.7,27.5,30.25,South,180,7.1,17.4,43,0.00,,,0.00,WUHU21636XXSP,2013-11-04 19:32:00,
2013-11-04 14:37:00,48.9,27.8,30.25,SSE,157,10.5,18.1,44,0.00,,,0.00,WUHU21636XXSP,2013-11-04 19:37:00,
2013-11-04 14:42:00,49.1,27.9,30.24,SSE,157,8.2,18.1,44,0.00,,,0.00,WUHU21636XXSP,2013-11-04 19:42:00,
2013-11-04 14:47:00,48.9,26.6,30.24,SE,135,9.3,17.8,42,0.00,,,0.00,WUHU21636XXSP,2013-11-04 19:47:00,
2013-11-04 14:52:00,48.7,25.9,30.25,SE,135,12.7,21.4,41,0.00,,,0.00,WUHU21636XXSP,2013-11-04 19:52:00,
2013-11-04 14:57:00,48.4,25.5,30.24,SSE,157,12.0,21.4,41,0.00,,,0.00,WUHU21636XXSP,2013-11-04 19:57:00,
2013-11-04 15:02:00,48.4,26.1,30.24,SE,135,5.8,18.1,42,0.00,,,0.00,WUHU21636XXSP,2013-11-04 20:02:00,
2013-11-04 15:07:00,48.2,26.1,30.24,SE,135,10.0,16.1,42,0.00,,,0.00,WUHU21636XXSP,2013-11-04 20:07:00,
2013-11-04 15:12:00,48.0,25.9,30.23,SE,135,11.4,18.3,42,0.00,,,0.00,WUHU21636XXSP,2013-11-04 20:12:00,
2013-11-04 15:17:00,48.0,25.9,30.23,SSE,157,8.2,18.3,42,0.00,,,0.00,WUHU21636XXSP,2013-11-04 20:17:00,
2013-11-04 15:22:00,48.2,26.6,30.23,SE,135,9.1,19.2,43,0.00,,,0.00,WUHU21636XXSP,2013-11-04 20:22:00,
2013-11-04 15:27:00,48.4,26.1,30.23,SSE,157,9.8,19.2,42,0.00,,,0.00,WUHU21636XXSP,2013-11-04 20:27:00,
2013-11-04 15:32:00,48.4,26.6,30.23,South,180,7.3,17.8,43,0.00,,,0.00,WUHU21636XXSP,2013-11-04 20:32:00,
2013-11-04 15:37:00,48.4,26.6,30.22,SSW,202,6.4,17.2,43,0.00,,,0.00,WUHU21636XXSP,2013-11-04 20:37:00,
2013-11-04 15:42:00,48.6,26.8,30.22,SSE,157,5.8,17.2,43,0.00,,,0.00,WUHU21636XXSP,2013-11-04 20:42:00,
2013-11-04 15:47:00,48.6,26.8,30.22,SSE,157,12.5,18.3,43,0.00,,,0.00,WUHU21636XXSP,2013-11-04 20:47:00,
2013-11-04 15:52:00,48.6,26.8,30.22,SE,135,6.9,22.1,43,0.00,,,0.00,WUHU21636XXSP,2013-11-04 20:52:00,
2013-11-04 15:57:00,48.7,26.4,30.22,South,180,10.0,22.1,42,0.00,,,0.00,WUHU21636XXSP,2013-11-04 20:57:00,
2013-11-04 16:02:00,48.6,26.8,30.21,South,180,6.9,17.8,43,0.00,,,0.00,WUHU21636XXSP,2013-11-04 21:02:00,
2013-11-04 16:07:00,48.4,26.6,30.21,SE,135,5.8,14.3,43,0.00,,,0.00,WUHU21636XXSP,2013-11-04 21:07:00,
2013-11-04 16:12:00,48.4,27.1,30.21,SSE,157,4.9,22.1,44,0.00,,,0.00,WUHU21636XXSP,2013-11-04 21:12:00,
2013-11-04 16:17:00,48.4,26.6,30.21,SSE,157,10.0,22.1,43,0.00,,,0.00,WUHU21636XXSP,2013-11-04 21:17:00,
2013-11-04 16:22:00,48.4,27.1,30.20,SSE,157,11.8,17.2,44,0.00,,,0.00,WUHU21636XXSP,2013-11-04 21:22:00,
2013-11-04 16:27:00,48.4,26.6,30.20,SE,135,8.7,17.2,44,0.00,,,0.00,WUHU21636XXSP,2013-11-04 21:27:00,
2013-11-04 16:32:00,48.4,27.1,30.20,SSE,157,7.6,14.5,44,0.00,,,0.00,WUHU21636XXSP,2013-11-04 21:32:00,
2013-11-04 16:37:00,48.0,27.0,30.19,SSE,157,6.4,17.0,44,0.00,,,0.00,WUHU21636XXSP,2013-11-04 21:37:00,
2013-11-04 16:42:00,48.0,26.4,30.20,SSE,157,8.9,17.0,43,0.00,,,0.00,WUHU21636XXSP,2013-11-04 21:42:00,
2013-11-04 16:47:00,47.8,26.2,30.20,SSE,157,5.8,18.1,43,0.00,,,0.00,WUHU21636XXSP,2013-11-04 21:47:00,
2013-11-04 16:52:00,47.5,25.9,30.20,SSE,157,10.7,18.1,43,0.00,,,0.00,WUHU21636XXSP,2013-11-04 21:52:00,
2013-11-04 16:57:00,47.5,25.9,30.20,SSE,157,7.3,23.9,43,0.00,,,0.00,WUHU21636XXSP,2013-11-04 21:57:00,
2013-11-04 17:04:00,47.3,25.8,30.20,SE,135,8.0,23.9,43,0.00,,,0.00,WUHU21636XXSP,2013-11-04 22:04:00,
2013-11-04 17:09:00,47.3,26.2,30.19,SE,135,9.8,17.0,44,0.00,,,0.00,WUHU21636XXSP,2013-11-04 22:09:00,
2013-11-04 17:14:00,47.1,25.5,30.19,South,180,12.9,17.4,43,0.00,,,0.00,WUHU21636XXSP,2013-11-04 22:14:00,
2013-11-04 17:19:00,46.9,25.9,30.18,SSE,157,12.0,20.1,44,0.00,,,0.00,WUHU21636XXSP,2013-11-04 22:19:00,
2013-11-04 17:24:00,46.9,25.9,30.19,South,180,8.7,20.1,44,0.00,,,0.00,WUHU21636XXSP,2013-11-04 22:24:00,
2013-11-04 17:29:00,46.9,25.9,30.20,South,180,6.2,16.7,44,0.00,,,0.00,WUHU21636XXSP,2013-11-04 22:29:00,
2013-11-04 17:34:00,46.8,25.7,30.20,SSE,157,7.1,18.3,44,0.00,,,0.00,WUHU21636XXSP,2013-11-04 22:34:00,
2013-11-04 17:39:00,46.8,26.2,30.20,SSE,157,9.6,18.3,45,0.00,,,0.00,WUHU21636XXSP,2013-11-04 22:39:00,
2013-11-04 17:44:00,46.6,26.1,30.20,SSE,157,3.5,15.8,45,0.00,,,0.00,WUHU21636XXSP,2013-11-04 22:44:00,
2013-11-04 17:49:00,46.6,26.3,30.20,SE,135,10.0,18.3,45,0.00,,,0.00,WUHU21636XXSP,2013-11-04 22:49:00,
2013-11-04 17:54:00,46.4,26.1,30.20,SSE,157,4.4,18.3,45,0.00,,,0.00,WUHU21636XXSP,2013-11-04 22:54:00,
2013-11-04 17:59:00,46.0,26.2,30.20,SE,135,9.1,16.1,46,0.00,,,0.00,WUHU21636XXSP,2013-11-04 22:59:00,
2013-11-04 18:04:00,46.0,26.2,30.20,SSE,157,12.3,21.2,46,0.00,,,0.00,WUHU21636XXSP,2013-11-04 23:04:00,
2013-11-04 18:09:00,46.0,26.6,30.20,SSE,157,7.1,21.2,47,0.00,,,0.00,WUHU21636XXSP,2013-11-04 23:09:00,
2013-11-04 18:14:00,45.7,27.0,30.20,SE,135,9.3,20.1,48,0.00,,,0.00,WUHU21636XXSP,2013-11-04 23:14:00,
2013-11-04 18:19:00,45.3,26.6,30.20,SSE,157,10.5,20.1,48,0.00,,,0.00,WUHU21636XXSP,2013-11-04 23:19:00,
2013-11-04 18:24:00,45.3,27.1,30.20,SE,135,8.2,18.5,49,0.00,,,0.00,WUHU21636XXSP,2013-11-04 23:24:00,
2013-11-04 18:29:00,45.1,27.5,30.19,South,180,13.8,19.4,50,0.00,,,0.00,WUHU21636XXSP,2013-11-04 23:29:00,
2013-11-04 18:34:00,45.0,27.9,30.18,SE,135,9.3,19.4,51,0.00,,,0.00,WUHU21636XXSP,2013-11-04 23:34:00,
2013-11-04 18:39:00,44.8,28.0,30.18,SE,135,12.9,20.3,52,0.00,,,0.00,WUHU21636XXSP,2013-11-04 23:39:00,
2013-11-04 18:44:00,44.8,28.0,30.18,ESE,112,8.9,20.3,52,0.00,,,0.00,WUHU21636XXSP,2013-11-04 23:44:00,
2013-11-04 18:49:00,44.4,27.9,30.18,SSE,157,8.2,19.2,52,0.00,,,0.00,WUHU21636XXSP,2013-11-04 23:49:00,
2013-11-04 18:54:00,44.4,28.2,30.18,SE,135,5.1,19.2,53,0.00,,,0.00,WUHU21636XXSP,2013-11-04 23:54:00,
2013-11-04 18:59:00,44.2,28.0,30.18,SSE,157,10.0,19.0,53,0.00,,,0.00,WUHU21636XXSP,2013-11-04 23:59:00,
2013-11-04 19:04:00,44.2,28.0,30.18,SSE,157,7.1,18.5,53,0.00,,,0.00,WUHU21636XXSP,2013-11-05 00:04:00,
2013-11-04 19:09:00,44.2,28.0,30.18,SSE,157,7.3,18.5,53,0.00,,,0.00,WUHU21636XXSP,2013-11-05 00:09:00,
2013-11-04 19:13:00,44.2,28.0,30.18,SSW,202,8.0,18.5,53,0.00,,,0.00,WUHU21636XXSP,2013-11-05 00:13:00,
2013-11-04 19:19:00,44.1,28.0,30.18,SE,135,7.6,18.5,52,0.00,,,0.00,WUHU21636XXSP,2013-11-05 00:19:00,
2013-11-04 19:24:00,44.2,27.7,30.18,SE,135,8.9,17.6,52,0.00,,,0.00,WUHU21636XXSP,2013-11-05 00:24:00,
2013-11-04 19:29:00,44.1,27.7,30.18,SSW,202,8.9,16.3,52,0.00,,,0.00,WUHU21636XXSP,2013-11-05 00:29:00,
2013-11-04 19:33:00,44.1,27.5,30.18,SSE,157,8.7,17.9,52,0.00,,,0.00,WUHU21636XXSP,2013-11-05 00:33:00,
2013-11-04 19:38:00,44.1,27.5,30.18,SE,135,7.1,17.9,52,0.00,,,0.00,WUHU21636XXSP,2013-11-05 00:38:00,
2013-11-04 19:43:00,43.9,26.8,30.18,SSE,157,8.5,16.7,51,0.00,,,0.00,WUHU21636XXSP,2013-11-05 00:43:00,
2013-11-04 19:48:00,44.2,27.1,30.18,SW,225,10.5,18.5,51,0.00,,,0.00,WUHU21636XXSP,2013-11-05 00:48:00,
2013-11-04 19:53:00,44.2,27.1,30.17,South,180,5.8,18.5,51,0.00,,,0.00,WUHU21636XXSP,2013-11-05 00:53:00,
2013-11-04 19:58:00,43.9,26.8,30.18,SSE,157,6.2,16.5,51,0.00,,,0.00,WUHU21636XXSP,2013-11-05 00:58:00,
2013-11-04 20:03:00,44.2,27.1,30.18,SE,135,6.9,14.3,51,0.00,,,0.00,WUHU21636XXSP,2013-11-05 01:03:00,
2013-11-04 20:08:00,44.2,27.1,30.18,SSW,202,7.3,15.4,51,0.00,,,0.00,WUHU21636XXSP,2013-11-05 01:08:00,
2013-11-04 20:13:00,44.2,19.9,30.18,South,180,11.6,15.4,51,0.00,,,0.00,WUHU21636XXSP,2013-11-05 01:13:00,
2013-11-04 20:18:00,44.2,27.1,30.18,South,180,6.2,14.0,51,0.00,,,0.00,WUHU21636XXSP,2013-11-05 01:18:00,
2013-11-04 20:23:00,44.2,27.1,30.18,SSE,157,6.4,16.5,51,0.00,,,0.00,WUHU21636XXSP,2013-11-05 01:23:00,
2013-11-04 20:28:00,44.2,27.1,30.18,South,180,9.6,17.8,51,0.00,,,0.00,WUHU21636XXSP,2013-11-05 01:28:00,
2013-11-04 20:33:00,44.2,27.1,30.19,SE,135,6.4,17.8,51,0.02,,,0.02,WUHU21636XXSP,2013-11-05 01:33:00,
2013-11-04 20:38:00,44.2,27.1,30.19,South,180,7.3,17.4,51,0.02,,,0.02,WUHU21636XXSP,2013-11-05 01:38:00,
2013-11-04 20:43:00,44.2,27.1,30.19,South,180,6.4,17.0,51,0.02,,,0.02,WUHU21636XXSP,2013-11-05 01:43:00,
2013-11-04 20:48:00,44.2,27.7,30.19,South,180,3.1,17.0,52,0.02,,,0.02,WUHU21636XXSP,2013-11-05 01:48:00,
2013-11-04 20:53:00,44.2,27.7,30.19,South,180,6.7,14.5,52,0.02,,,0.02,WUHU21636XXSP,2013-11-05 01:53:00,
2013-11-04 20:58:00,44.2,27.7,30.19,SSE,157,7.8,14.0,52,0.02,,,0.02,WUHU21636XXSP,2013-11-05 01:58:00,
2013-11-04 21:03:00,44.2,27.7,30.19,SSE,157,5.1,14.0,52,0.02,,,0.02,WUHU21636XXSP,2013-11-05 02:03:00,
2013-11-04 21:08:00,44.2,28.0,30.19,SSW,202,6.2,13.1,53,0.02,,,0.02,WUHU21636XXSP,2013-11-05 02:08:00,
2013-11-04 21:13:00,44.2,28.0,30.19,SSE,157,4.9,13.1,53,0.02,,,0.02,WUHU21636XXSP,2013-11-05 02:13:00,
2013-11-04 21:18:00,44.4,28.2,30.19,SSE,157,7.6,14.0,53,0.02,,,0.02,WUHU21636XXSP,2013-11-05 02:18:00,
2013-11-04 21:23:00,44.4,28.2,30.19,SSE,157,2.9,14.0,53,0.02,,,0.02,WUHU21636XXSP,2013-11-05 02:23:00,
2013-11-04 21:28:00,44.4,28.2,30.19,SSE,157,7.3,10.5,53,0.00,,,0.02,WUHU21636XXSP,2013-11-05 02:28:00,
2013-11-04 21:33:00,44.4,28.2,30.19,SSE,157,4.2,10.5,53,0.00,,,0.02,WUHU21636XXSP,2013-11-05 02:33:00,
2013-11-04 21:38:00,44.8,28.9,30.19,SSE,157,7.1,16.5,54,0.00,,,0.02,WUHU21636XXSP,2013-11-05 02:38:00,
2013-11-04 21:43:00,44.8,28.9,30.19,SSE,157,8.2,16.5,54,0.00,,,0.02,WUHU21636XXSP,2013-11-05 02:43:00,
2013-11-04 21:48:00,44.8,28.9,30.19,South,180,4.9,17.4,54,0.00,,,0.02,WUHU21636XXSP,2013-11-05 02:48:00,
2013-11-04 21:53:00,44.8,28.9,30.19,SSW,202,5.5,17.4,54,0.00,,,0.02,WUHU21636XXSP,2013-11-05 02:53:00,
2013-11-04 21:58:00,44.8,29.5,30.19,South,180,3.1,15.8,55,0.00,,,0.02,WUHU21636XXSP,2013-11-05 02:58:00,
2013-11-04 22:03:00,45.0,29.7,30.19,SSE,157,9.8,16.5,55,0.00,,,0.02,WUHU21636XXSP,2013-11-05 03:03:00,
2013-11-04 22:08:00,45.1,29.8,30.19,South,180,5.5,18.3,55,0.00,,,0.02,WUHU21636XXSP,2013-11-05 03:08:00,
2013-11-04 22:13:00,45.3,30.0,30.20,South,180,3.3,18.3,55,0.00,,,0.02,WUHU21636XXSP,2013-11-05 03:13:00,
2013-11-04 22:18:00,45.3,29.5,30.19,SSE,157,9.3,16.7,54,0.00,,,0.02,WUHU21636XXSP,2013-11-05 03:18:00,
2013-11-04 22:23:00,45.3,30.0,30.19,SSW,202,8.2,16.7,55,0.00,,,0.02,WUHU21636XXSP,2013-11-05 03:23:00,
2013-11-04 22:28:00,45.3,30.0,30.19,SSW,202,10.5,16.3,55,0.00,,,0.02,WUHU21636XXSP,2013-11-05 03:28:00,
2013-11-04 22:33:00,45.3,30.0,30.19,SSE,157,8.0,19.0,55,0.00,,,0.02,WUHU21636XXSP,2013-11-05 03:33:00,
2013-11-04 22:38:00,45.3,30.4,30.19,SSW,202,6.9,19.0,56,0.00,,,0.02,WUHU21636XXSP,2013-11-05 03:38:00,
2013-11-04 22:43:00,45.3,30.4,30.19,WSW,247,7.8,15.6,56,0.00,,,0.02,WUHU21636XXSP,2013-11-05 03:43:00,
2013-11-04 22:48:00,45.1,30.2,30.19,SSE,157,6.7,14.7,56,0.00,,,0.02,WUHU21636XXSP,2013-11-05 03:48:00,
2013-11-04 22:53:00,45.1,30.2,30.18,SSE,157,3.5,14.7,56,0.00,,,0.02,WUHU21636XXSP,2013-11-05 03:53:00,
2013-11-04 22:58:00,45.0,30.6,30.18,SSW,202,6.7,9.8,57,0.00,,,0.02,WUHU21636XXSP,2013-11-05 03:58:00,
2013-11-04 23:03:00,45.1,30.7,30.18,SSW,202,3.8,18.5,57,0.00,,,0.02,WUHU21636XXSP,2013-11-05 04:03:00,
2013-11-04 23:08:00,45.0,30.6,30.18,SSW,202,2.4,18.5,57,0.00,,,0.02,WUHU21636XXSP,2013-11-05 04:08:00,
2013-11-04 23:13:00,45.0,30.6,30.18,SSW,202,4.6,12.5,57,0.00,,,0.02,WUHU21636XXSP,2013-11-05 04:13:00,
2013-11-04 23:18:00,45.0,30.9,30.18,South,180,4.6,10.2,58,0.00,,,0.02,WUHU21636XXSP,2013-11-05 04:18:00,
2013-11-04 23:23:00,45.0,30.9,30.18,South,180,3.1,12.5,58,0.00,,,0.02,WUHU21636XXSP,2013-11-05 04:23:00,
2013-11-04 23:28:00,45.0,30.9,30.18,SSW,202,5.1,12.5,58,0.00,,,0.02,WUHU21636XXSP,2013-11-05 04:28:00,
2013-11-04 23:33:00,45.0,30.9,30.18,South,180,4.2,5.3,58,0.00,,,0.02,WUHU21636XXSP,2013-11-05 04:33:00,
2013-11-04 23:38:00,45.1,31.6,30.18,South,180,4.9,5.3,59,0.00,,,0.02,WUHU21636XXSP,2013-11-05 04:38:00,
2013-11-04 23:43:00,45.3,31.8,30.18,SSW,202,2.9,10.0,59,0.00,,,0.02,WUHU21636XXSP,2013-11-05 04:43:00,
2013-11-04 23:48:00,45.3,31.8,30.18,South,180,5.1,10.0,59,0.00,,,0.02,WUHU21636XXSP,2013-11-05 04:48:00,
2013-11-04 23:53:00,45.7,32.0,30.18,SSW,202,4.9,7.1,59,0.00,,,0.02,WUHU21636XXSP,2013-11-05 04:53:00,
2013-11-04 23:58:00,45.7,32.0,30.18,SSE,157,4.6,9.3,59,0.00,,,0.02,WUHU21636XXSP,2013-11-05 04:58:00,